Indianapolis, IN (46253)

6:44 AM EDT on July 24, 2016 (GMT -0400)
Speedway | | Change Station
Active Advisory: Heat Advisory

Elev 768 ft 39.81 °N, 86.26 °W | Updated 3 seconds ago

Scattered Clouds
Scattered Clouds
76.6 °F
Feels Like 78 °F
N
3.2
Wind Variable Wind from East
Gusts 3.2 mph

Today
High -- | Low -- °F
--% Chance of Precip.
Yesterday
High -- | Low -- °F
Precip. -- in
Pressure 29.96 in
Visibility 10.0 miles
Clouds Few 3300 ft
Few 4200 ft
Scattered Clouds 25000 ft
Heat Index 78 °F
Dew Point 70 °F
Humidity 80%
Rainfall 0.00 in
Snow Depth Not available.
6:37 AM 9:05 PM
Waning Gibbous, 77% visible
METAR KIND 240954Z 08006KT 10SM FEW033 FEW042 SCT250 26/23 A2999 RMK AO2 SLP145 T02560228
Pressure 29.96 in
Visibility 10.0 miles
Clouds Few 3300 ft
Few 4200 ft
Scattered Clouds 25000 ft
Heat Index 78 °F
Dew Point 70 °F
Humidity 80%
Rainfall 0.00 in
Snow Depth Not available.
6:37 AM 9:05 PM
Waning Gibbous, 77% visible
METAR KIND 240954Z 08006KT 10SM FEW033 FEW042 SCT250 26/23 A2999 RMK AO2 SLP145 T02560228

10-Day Weather Forecast

Almanac

Astronomy

Jul. 24, 2016 Rise Set
Actual Time
Civil Twilight
Nautical Twilight
Astronomical Twilight
Moon
Length of Visible Light
Length of Day
Tomorrow will be .
, % of the Moon is Illuminated

Today's Extremes

State Highs State Lows

Community

WunderPhotos

Upload Photos

1,927,039 photos uploaded!

WunderBlog® & News

Nearby

Air Quality

  Air Quality AQ Index Pollutant
Not available.

Snow Depth

Station Depth Elevation

Earthquake Activity

City Distance Mag. Time & Date
Minimum magnitude displayed is 2.5.

Coastal Water Temperatures

Place Temperature

Stations

Nearby Weather Stations

Station Location Temp. Windchill Dew Point Humidity Wind Precip. Elev Updated Type
                   

Watches & Warnings

Heat Advisory
Issued: 3:22 AM EDT Jul. 24, 2016 – National Weather Service

... Heat advisory remains in effect until 8 PM EDT this evening...

* temperature... highs as warm as the low to middle 90s with dew
point tempertures in the middle 70s.

* Impacts... heat index values will approach 105 degrees across
the area Sunday afternoon.

Precautionary/preparedness actions...

A heat advisory means that a period of hot temperatures is
expected. The combination of hot temperatures and high humidity
will combine to create a situation in which heat illnesses are
possible. Drink plenty of fluids... stay in an air-conditioned
room... stay out of the sun... and check up on relatives and
neighbors.



Puma